STAMFORD HARBOR AT STAMFORD CT US USARMY-COE current weather conditions

sailwx.info

Wind from 241 at 2 knots

Air temperature 23.4° C

Last reported at 2019-Aug-23 04:00 UTC.
Time now 2019-Aug-23 04:48 UTC

Location: N 41°02' W 073°32'.
View on Google Maps.

See reports from other nearby stations

  
Tides and Currents Weather Stations Pressure Air Temp Water Temp Dewpoint Dewpoint Depression Visibility Wind Speed Wind Dir Waves Ship Positions
date/time (UTC)wind fromknots sea level pressurealtimeterstation pressurevisibilityair tempwater tempwave heightnotes
2019-Aug-23 04:00 241 2 23.4
2019-Aug-23 03:30 177 3 23.3
2019-Aug-23 03:00 051 1 23.4
2019-Aug-23 02:30 238 2 24.1
2019-Aug-23 02:00 295 2 24.3
2019-Aug-23 01:30 308 1 24.6
2019-Aug-23 01:00 319 6 26.3
2019-Aug-23 00:30 226 2 26.1
2019-Aug-23 00:00 223 1 26.1
2019-Aug-22 23:30 197 1 26.4
2019-Aug-22 23:00 341 3 26.6
2019-Aug-22 22:30 348 7 26.4
2019-Aug-22 22:00 009 6 26.1
2019-Aug-22 21:30 345 6 24.8
2019-Aug-22 21:00 218 4 30.0
2019-Aug-22 20:30 199 4 29.8
2019-Aug-22 20:00 194 4 31.1
2019-Aug-22 19:30 184 6 30.7
2019-Aug-22 19:00 194 6 30.4
2019-Aug-22 18:30 193 5 30.7
2019-Aug-22 18:00 207 8 29.9
2019-Aug-22 17:30 259 6 31.6
2019-Aug-22 17:00 207 9 30.6
2019-Aug-22 16:30 205 9 29.6
2019-Aug-22 16:00 241 3 30.0
2019-Aug-22 15:30 222 0 29.3
2019-Aug-22 15:00 221 5 29.6
2019-Aug-22 14:30 291 5 28.9
2019-Aug-22 14:00 237 3 28.6
2019-Aug-22 13:30 234 6 27.9
2019-Aug-22 13:00 208 5 26.0
2019-Aug-22 12:30 259 2 26.2
2019-Aug-22 12:00 235 1 25.4
2019-Aug-22 11:30 241 2 25.2
2019-Aug-22 11:00 225 2 24.7
2019-Aug-22 10:30 226 0 24.8
2019-Aug-22 10:00 244 1 24.5
2019-Aug-22 09:30 274 0 24.6
2019-Aug-22 09:00 224 1 24.7
2019-Aug-22 08:30 213 3 24.9
2019-Aug-22 08:00 263 1 25.1
2019-Aug-22 07:30 218 25.2
2019-Aug-22 07:00 216 3 25.4
2019-Aug-22 06:30 181 1 25.3
2019-Aug-22 06:00 228 0 25.4
2019-Aug-22 05:30 169 0 25.6
2019-Aug-22 05:00 220 1 25.4
2019-Aug-22 04:30 249 25.2
2019-Aug-22 04:00 194 1 25.4
2019-Aug-22 03:30 216 1 25.4
2019-Aug-22 03:00 240 2 25.6
2019-Aug-22 02:30 222 1 25.7
2019-Aug-22 02:00 206 1 25.7
2019-Aug-22 01:30 214 3 25.8
2019-Aug-22 01:00 212 6 25.8
2019-Aug-22 00:30 203 6 25.9
2019-Aug-22 00:00 208 7 26.2
2019-Aug-21 23:30 205 9 26.8
2019-Aug-21 23:00 182 4 27.6
2019-Aug-21 22:30 194 3 26.9
2019-Aug-21 22:00 171 8 26.2
2019-Aug-21 21:30 214 5 28.3
2019-Aug-21 21:00 204 8 27.9
2019-Aug-21 20:30 193 8 28.9
2019-Aug-21 20:00 214 7 29.1
2019-Aug-21 19:30 212 6 28.8
2019-Aug-21 19:00 208 6 29.9
2019-Aug-21 18:30 220 7 29.9
2019-Aug-21 18:00 217 6 28.8
2019-Aug-21 17:30 211 8 28.3
2019-Aug-21 17:00 208 9 29.1
2019-Aug-21 16:30 205 8 28.3
2019-Aug-21 16:00 211 7 28.7
2019-Aug-21 15:30 200 5 27.7
2019-Aug-21 15:00 174 3 27.5
2019-Aug-21 14:30 207 4 26.8
2019-Aug-21 14:00 204 2 26.1
2019-Aug-21 13:30 207 2 25.8
2019-Aug-21 13:00 189 2 25.7
2019-Aug-21 12:30 088 6 25.2
2019-Aug-21 12:00 096 3 24.9
2019-Aug-21 11:30 062 1 25.0
2019-Aug-21 11:00 053 2 25.2
2019-Aug-21 10:30 010 0 25.0
2019-Aug-21 10:00 334 24.9
2019-Aug-21 09:30 073 0 25.3
2019-Aug-21 09:00 172 4 25.2
2019-Aug-21 08:30 203 2 25.3
2019-Aug-21 08:00 198 2 25.2
2019-Aug-21 07:30 204 5 25.1
2019-Aug-21 07:00 238 1 24.8
2019-Aug-21 06:30 176 0 24.7
2019-Aug-21 06:00 130 25.0
2019-Aug-21 05:30 218 25.3
2019-Aug-21 05:00 165 0 25.4
2019-Aug-21 04:30 203 2 25.7
2019-Aug-21 04:00 233 0 25.7